GFSFLT2_250_rhum_000.txt.gz
RH
100 100 100 100 100 100 81 100 100 100 100 82 78 54 95 90 67 80 65 61 62 58 46 39 31 26 12
100 100 100 100 100 96 81 100 100 100 93 74 65 78 77 83 76 74 60 55 70 47 44 33 27 17 11
100 100 100 100 98 98 100 81 87 76 87 99 73 59 93 83 80 66 62 71 57 46 36 29 26 12 12
100 100 100 100 100 100 100 100 82 100 96 81 78 74 90 78 74 64 65 57 45 42 33 28 18 11 11
100 100 98 100 100 97 96 100 74 92 74 80 78 81 85 78 66 56 60 50 47 37 31 25 14 12 11
100 94 100 100 100 100 100 100 100 100 94 81 77 90 78 68 59 56 66 48 40 33 29 16 15 14 12
99 100 100 100 100 100 100 100 95 100 87 77 92 84 71 67 60 70 54 49 36 30 22 13 18 17 13
100 100 100 100 100 100 100 100 96 100 86 96 80 83 78 67 70 59 50 41 34 30 15 14 18 19 14
100 100 100 100 100 100 96 100 100 100 97 97 94 94 94 67 63 46 52 39 32 24 17 17 22 19 14
100 100 100 100 100 100 100 100 100 92 90 94 84 100 82 58 48 49 48 36 28 17 21 21 21 16 14
100 100 100 100 100 100 94 100 100 94 97 81 94 94 64 55 48 47 41 32 21 15 23 21 18 15 14
100 100 100 100 100 96 100 98 100 100 83 84 92 78 59 53 51 49 33 26 16 17 21 18 15 14 14
100 100 100 100 100 100 100 100 100 89 76 100 90 67 60 53 52 42 34 20 16 18 20 15 14 14 14
100 100 100 100 100 100 100 100 97 74 82 81 82 61 52 53 48 36 29 23 19 20 18 14 15 14 13
100 100 100 100 100 100 100 100 77 82 89 79 82 57 54 58 46 31 26 18 20 20 16 15 15 14 11
100 100 100 100 100 100 100 83 75 84 70 83 69 54 59 48 40 25 16 17 19 15 14 14 13 13 12
100 100 100 100 100 100 80 72 90 75 84 75 60 60 50 38 31 18 14 20 15 12 11 12 12 12 12

GFSFLT2_250_rhum_003.txt.gz
RH
100 100 100 100 100 100 100 100 100 100 100 100 100 100 100 96 88 79 70 61 80 76 69 75 53 55 44
100 100 100 100 100 100 100 100 100 100 100 100 100 100 100 93 81 80 84 71 86 78 88 72 52 44 34
100 100 100 100 100 100 100 100 100 100 81 93 100 100 98 74 79 68 82 78 76 80 83 56 49 37 30
100 100 100 100 100 100 100 100 100 100 94 100 97 99 78 87 78 68 92 83 76 80 61 53 40 30 32
100 100 100 100 100 100 100 100 100 100 100 100 92 95 91 87 70 93 98 88 73 68 53 48 35 32 26
100 100 100 100 100 100 100 100 100 100 100 100 91 94 94 85 75 85 97 74 76 61 51 40 33 26 17
100 100 100 100 100 100 100 100 100 100 100 96 93 95 92 92 82 90 75 78 80 60 45 37 30 18 16
100 100 100 100 100 100 100 100 100 100 100 97 89 100 92 92 92 93 76 83 65 54 43 33 26 17 19
100 100 100 100 100 100 100 100 100 100 100 98 98 98 93 86 82 96 80 72 59 50 38 33 26 19 17
100 100 100 100 100 100 100 100 100 100 100 100 100 93 89 78 88 79 78 68 53 47 34 30 20 20 15
100 100 100 100 100 100 100 100 100 100 100 100 100 100 95 95 77 74 61 57 50 34 29 22 17 17 15
100 100 100 100 100 100 100 100 100 100 100 100 99 100 90 91 69 61 62 52 35 29 24 16 18 16 14
100 100 100 100 100 100 100 100 100 100 100 100 91 94 88 78 64 70 61 39 30 25 17 16 17 14 13
100 100 100 100 100 100 100 100 100 99 97 91 95 88 78 74 83 58 43 35 30 25 18 18 14 13 12
100 100 100 100 100 100 100 100 100 99 88 90 92 73 73 88 81 50 41 32 29 19 19 15 13 12 12
100 100 100 100 100 100 100 100 91 90 86 74 78 92 87 79 50 43 30 26 18 17 15 12 13 12 10
100 100 100 100 100 100 100 100 88 82 68 78 86 74 76 53 44 34 25 16 17 15 11 11 9 8 9

GFSFLT2_250_rhum_006.txt.gz
RH
80 74 75 83 81 64 43 70 74 100 100 100 100 100 100 100 100 99 100 84 82 69 71 70 79 86 84
75 65 70 81 77 59 55 89 87 100 100 100 100 100 100 90 87 100 97 90 88 84 72 78 87 84 73
55 56 58 73 58 59 69 92 85 100 100 100 100 100 86 86 97 99 94 93 84 81 72 82 89 80 70
46 45 58 58 53 64 78 93 92 100 100 100 100 100 83 76 86 97 88 84 82 89 79 79 76 85 66
51 56 57 39 60 66 100 100 94 100 100 100 100 98 94 89 100 100 80 92 92 84 79 79 93 81 52
54 50 38 40 54 88 100 100 100 100 100 100 100 100 92 87 100 82 94 84 87 87 79 86 91 65 46
43 33 28 51 52 97 100 100 100 100 100 100 100 98 91 100 92 94 84 89 91 87 85 87 88 54 39
27 22 40 44 100 100 100 100 100 100 100 100 100 88 100 100 98 84 98 98 98 84 88 94 61 45 33
20 32 38 30 75 100 100 100 100 100 100 100 100 100 100 100 94 98 100 100 86 86 86 65 48 37 30
26 34 22 47 97 100 100 100 100 100 100 100 100 100 100 100 96 100 99 78 82 88 72 57 36 33 32
30 20 31 75 100 100 100 100 100 100 100 100 100 100 100 100 100 95 82 87 91 65 61 36 32 35 27
18 24 39 99 100 100 100 100 100 100 100 100 100 100 100 100 95 90 70 86 65 48 37 33 31 29 24
19 26 70 100 100 100 100 100 100 100 100 100 100 100 100 100 92 70 88 55 45 36 30 29 27 25 19
20 40 97 100 100 100 100 100 100 100 100 100 100 100 100 84 81 82 54 45 36 33 30 28 24 19 14
26 53 100 100 100 100 100 100 100 100 100 100 99 96 80 84 87 60 42 34 34 34 27 22 18 14 10
29 82 100 100 100 100 100 100 100 100 100 100 85 83 85 75 56 47 38 35 29 28 26 20 13 12 9
46 95 100 100 100 100 100 100 100 100 93 80 98 84 69 57 44 41 32 27 26 22 18 12 10 10 7

GFSFLT2_250_rhum_009.txt.gz
RH
38 38 42 51 68 70 58 63 70 66 58 67 72 75 98 100 97 100 100 100 86 85 63 81 89 87 70
38 39 46 53 63 57 58 61 66 64 69 73 70 88 100 100 100 100 100 100 90 73 77 93 86 88 66
47 50 48 56 62 64 62 60 59 70 76 74 78 96 95 100 100 100 100 94 98 86 90 99 83 76 70
46 58 63 61 57 60 51 50 48 63 85 82 96 100 98 100 100 100 92 100 86 99 96 87 86 76 75
47 48 49 41 55 59 42 48 49 79 90 100 100 100 100 100 100 97 91 85 100 94 86 88 77 74 92
25 28 28 24 28 30 37 53 49 73 100 100 100 100 100 100 100 93 88 100 96 91 94 74 80 88 97
18 23 21 17 18 26 38 41 62 100 99 100 100 100 100 100 100 98 97 88 93 98 77 92 93 96 92
15 14 11 15 17 27 30 35 42 97 100 100 100 100 100 100 100 92 95 100 100 79 90 97 95 95 89
10 10 13 21 20 23 29 32 62 98 100 100 100 100 100 100 84 98 100 94 96 88 98 97 93 97 64
11 13 15 19 21 27 33 59 80 64 99 100 100 100 100 100 99 99 100 98 90 99 100 91 97 80 56
13 17 19 21 27 43 49 43 50 100 100 100 100 100 100 92 100 100 91 94 86 99 95 87 73 68 42
17 18 18 25 43 40 28 51 92 100 100 100 100 100 100 100 92 80 83 89 100 92 91 69 63 49 40
14 17 24 37 28 26 59 98 100 100 100 100 100 100 100 100 94 100 100 95 89 85 73 64 48 43 38
16 25 30 20 20 55 87 100 100 100 100 100 100 100 92 100 100 100 94 88 77 67 68 42 41 35 25
19 17 15 12 47 84 100 100 100 100 100 100 100 98 95 95 98 87 86 68 62 53 43 36 32 26 18
18 18 12 18 57 100 83 94 96 93 91 85 93 92 98 96 85 77 74 54 41 34 32 29 22 17 13
19 13 23 46 88 99 74 67 85 98 95 98 96 92 86 74 77 67 49 41 32 28 25 21 13 11 11

GFSFLT2_250_rhum_012.txt.gz
RH
36 35 36 34 35 38 44 48 50 56 66 62 68 67 68 71 68 70 80 92 90 98 99 95 96 88 93
26 27 30 37 36 41 46 46 49 59 76 56 60 66 78 73 71 62 86 91 100 100 96 87 87 99 97
18 22 22 26 28 32 34 40 43 54 55 53 64 71 62 70 74 98 99 96 100 100 94 86 96 98 87
19 22 25 22 22 28 36 39 41 65 46 55 68 76 60 64 78 100 96 100 100 100 89 90 100 97 86
17 18 22 24 26 29 28 29 37 54 62 65 61 48 62 86 95 100 100 100 100 100 97 100 100 95 94
12 12 15 17 17 16 18 24 24 33 40 43 39 37 92 78 100 100 100 100 100 100 100 100 100 100 94
8 13 14 16 13 14 15 20 20 24 32 26 21 36 99 100 100 100 100 100 100 100 100 100 100 91 76
8 11 11 12 14 16 16 18 20 22 18 17 36 69 100 100 100 100 100 100 100 100 100 98 94 90 94
7 8 8 10 12 10 11 11 11 13 19 30 43 73 100 100 100 100 100 100 97 94 98 99 96 93 93
7 8 11 11 10 13 14 14 17 21 24 27 44 91 100 100 100 100 100 100 100 100 100 98 98 100 90
11 12 13 14 15 15 16 18 21 22 27 35 64 100 100 100 100 100 100 100 100 97 93 100 89 85 86
14 15 16 16 18 18 18 18 21 24 40 67 78 100 100 100 100 100 100 100 99 89 100 85 93 95 97
14 15 16 15 16 18 17 20 26 37 49 45 50 66 83 97 100 100 100 100 100 100 90 92 98 92 98
13 15 15 15 14 14 18 26 41 42 34 47 63 83 96 100 100 100 100 100 88 91 89 91 85 87 60
12 17 17 17 16 27 42 45 27 32 67 92 96 100 100 100 100 100 96 95 94 89 83 93 69 56 47
16 20 20 22 28 33 26 16 25 53 92 92 100 85 87 95 98 98 94 87 86 88 77 61 43 40 40
22 21 14 11 12 9 9 22 47 86 88 87 85 96 100 94 95 94 95 81 69 57 44 40 34 25 25

GFSFLT2_250_rhum_015.txt.gz
RH
19 20 22 24 26 29 30 33 32 34 33 33 39 41 44 44 53 60 72 78 86 90 92 99 92 91 90
14 17 20 21 23 26 27 30 35 40 42 42 39 38 42 46 55 51 65 71 82 93 96 87 91 83 86
9 14 16 18 19 20 26 29 33 38 42 44 46 43 48 56 67 53 61 67 81 95 98 85 87 92 98
6 8 10 16 14 17 19 23 26 28 30 34 35 33 35 55 57 54 63 66 90 95 93 88 87 97 90
6 6 10 11 12 13 16 20 21 25 24 23 26 22 30 52 58 56 58 63 84 95 92 98 100 100 100
5 8 9 11 12 11 12 13 17 16 13 14 19 24 33 44 40 45 61 58 79 100 92 100 99 100 100
6 6 7 7 6 6 6 6 6 8 10 16 18 21 23 31 44 46 49 60 81 88 100 100 100 100 100
6 8 7 7 6 6 6 6 8 9 11 14 15 18 22 31 33 36 41 45 64 90 100 100 100 100 100
7 7 8 9 8 7 10 8 9 10 10 10 12 16 18 23 26 27 32 48 91 100 100 100 100 100 100
8 9 10 10 11 10 11 9 9 11 11 10 12 13 14 17 20 26 45 78 100 100 100 100 100 100 100
7 7 10 11 11 11 10 11 13 14 12 13 16 17 19 26 32 43 73 94 100 100 100 100 100 100 100
8 8 10 10 11 11 12 14 16 17 17 18 20 22 25 30 36 53 73 93 100 100 100 100 100 100 100
7 10 13 12 12 13 15 16 16 17 19 19 20 24 37 59 82 88 93 100 100 100 100 100 100 100 97
9 12 10 10 11 14 16 16 16 16 18 19 26 45 61 78 88 91 92 100 100 100 100 100 100 100 100
10 10 11 11 12 16 17 16 15 15 21 37 46 44 44 54 66 82 95 100 100 100 100 100 100 100 100
9 11 12 13 18 19 19 20 24 32 40 33 27 25 42 69 69 78 92 91 95 100 100 99 91 91 92
10 12 15 20 21 21 24 29 26 23 21 22 28 43 83 100 99 100 95 95 92 88 84 82 80 84 83

GFSFLT2_250_rhum_018.txt.gz
RH
10 9 9 11 11 13 12 14 18 23 23 27 27 27 30 36 39 46 54 46 56 61 59 69 78 73 76
9 9 9 9 8 9 10 10 11 15 16 17 19 23 25 32 36 42 51 53 54 59 71 80 76 76 85
7 7 9 9 8 8 8 9 10 10 13 14 17 20 24 22 28 37 43 48 54 60 93 82 68 74 85
4 5 6 8 7 6 6 6 7 8 9 10 12 14 16 22 28 28 30 38 46 53 62 69 63 82 90
4 4 5 6 5 5 5 5 5 6 7 9 10 13 16 20 22 24 34 35 37 41 46 56 72 96 98
4 5 5 5 5 5 4 5 5 5 6 11 11 16 21 23 24 26 27 29 27 28 35 46 69 87 100
5 6 6 6 6 6 6 6 7 7 5 8 9 17 18 23 23 21 23 21 22 28 41 51 67 80 88
4 5 5 6 7 7 8 9 10 9 7 9 7 8 8 9 8 10 14 20 28 38 41 50 61 77 100
4 4 5 6 6 7 9 11 12 10 8 9 8 7 8 9 10 12 14 22 26 30 36 44 54 81 95
4 4 5 6 6 6 8 9 11 11 10 11 11 11 11 10 10 13 15 16 19 26 36 44 55 80 100
3 4 5 6 5 6 7 8 11 12 10 14 13 11 11 11 13 16 16 18 22 26 31 44 57 82 99
3 4 4 5 6 7 8 11 11 11 12 13 11 12 14 15 16 17 21 21 24 30 39 52 77 97 100
3 4 6 6 6 8 11 13 14 14 16 16 17 18 19 20 21 21 26 30 38 52 70 80 93 100 100
5 6 6 6 8 10 10 11 12 16 18 19 19 21 21 20 21 24 32 42 60 67 88 93 97 100 100
6 6 7 8 9 10 12 12 15 17 18 18 17 19 21 28 44 59 71 77 79 76 78 86 91 93 93
8 8 8 10 11 12 14 18 19 18 17 16 18 26 47 63 62 63 57 68 77 83 89 96 98 98 100
10 11 11 12 13 18 22 22 25 34 43 54 61 60 46 34 33 44 64 77 89 92 93 97 99 98 97

GFSFLT2_250_rhum_021.txt.gz
RH
5 6 6 6 7 7 7 8 8 9 9 9 10 11 12 13 15 20 26 30 44 36 49 34 36 42 47
5 5 5 5 5 5 5 5 6 7 7 7 8 8 10 12 13 13 16 21 29 33 35 41 33 28 45
3 3 3 4 4 4 4 4 4 5 5 6 6 6 7 9 11 12 15 16 20 26 29 33 31 44 75
2 2 3 3 3 3 4 4 4 4 5 5 5 5 6 7 8 9 11 13 16 23 28 32 40 72 95
2 2 3 3 3 3 3 4 4 4 5 5 5 5 6 6 6 7 8 9 11 15 20 28 43 53 78
2 2 2 2 3 3 3 4 5 4 5 6 5 5 6 6 6 6 7 9 12 14 17 22 34 47 63
2 2 2 2 2 2 3 4 4 5 5 7 6 6 6 7 6 6 7 10 13 17 22 26 35 41 55
2 2 2 3 3 3 3 4 5 6 5 8 6 8 8 9 8 7 7 10 12 26 35 41 41 42 50
3 3 3 3 3 3 3 5 5 4 5 7 5 8 10 10 10 9 10 10 12 20 30 39 36 36 42
3 3 4 4 3 3 4 4 5 4 6 8 8 11 12 13 12 12 11 10 11 12 12 13 19 25 40
3 4 4 4 4 4 4 5 5 5 8 9 9 9 13 12 14 14 14 12 13 13 14 16 21 32 40
5 5 5 4 4 4 5 6 6 7 7 8 10 12 14 13 15 15 14 13 13 14 16 18 22 28 33
5 5 5 5 5 6 6 6 7 9 12 13 13 13 13 13 14 15 16 16 17 19 20 22 26 31 37
6 6 6 6 6 7 7 9 10 10 11 14 16 16 18 18 19 19 20 20 20 22 24 27 30 36 53
7 7 7 8 8 9 10 11 11 11 12 15 18 20 21 21 22 22 22 24 26 31 35 42 52 66 73
8 9 10 9 10 11 12 13 13 14 17 18 19 20 19 19 21 22 22 25 27 34 49 63 73 87 92
10 11 11 11 12 13 14 16 19 19 19 19 19 19 24 34 40 44 53 55 60 70 70 81 86 80 86

GFSFLT2_250_rhum_024.txt.gz
RH
5 5 4 4 4 4 4 4 4 4 4 3 4 4 5 6 7 8 9 10 14 20 22 35 82 62 78
4 4 4 4 3 2 2 2 2 2 2 3 2 3 3 4 5 6 7 8 11 13 15 18 39 26 31
3 2 2 3 2 2 2 3 3 3 3 3 2 2 3 3 4 4 5 7 8 10 12 15 20 31 48
2 2 2 3 2 2 2 3 3 3 3 2 2 3 3 3 4 4 5 6 7 8 10 12 16 20 45
2 2 3 2 2 2 1 2 2 2 2 2 2 2 3 4 4 4 5 5 6 8 10 12 18 20 23
2 2 2 2 2 2 2 2 2 2 2 2 2 2 3 4 4 5 5 6 7 8 11 13 16 20 28
2 2 2 1 1 2 2 2 2 2 2 2 2 3 3 4 5 5 6 6 7 8 8 10 11 16 24
1 2 1 1 1 2 2 2 2 2 2 3 2 3 4 5 5 6 7 8 8 8 9 9 9 11 16
2 2 2 2 2 2 3 3 3 3 3 3 3 4 5 5 6 7 9 10 11 10 9 9 9 11 14
2 2 3 3 4 4 4 4 4 4 5 4 4 5 6 6 7 8 11 12 13 12 10 11 15 19 22
2 3 4 4 4 4 4 4 4 4 4 4 5 5 6 6 7 9 11 13 13 12 11 11 12 17 33
4 5 5 5 5 5 5 5 5 5 5 6 6 6 6 7 8 10 12 15 15 13 13 12 12 16 27
6 5 5 6 6 6 6 6 6 6 6 6 6 6 7 10 12 14 14 16 16 14 14 13 12 12 14
6 6 7 7 7 7 7 8 8 8 8 9 10 11 12 13 13 12 12 14 14 15 16 15 15 15 15
7 8 8 8 9 9 9 10 11 11 10 10 10 11 13 14 15 16 17 18 17 16 15 16 15 16 18
9 10 10 10 10 10 10 11 12 12 12 12 13 15 17 19 20 21 20 20 21 22 22 22 25 25 26
11 12 12 12 12 12 12 13 14 15 17 17 18 19 20 20 20 21 23 23 23 24 28 29 30 32 36

GFSFLT2_250_rhum_027.txt.gz
RH
20 20 11 6 5 4 3 3 3 3 3 3 3 2 2 2 2 3 4 4 5 7 9 12 15 21 17
10 6 5 4 4 4 3 3 2 2 2 2 2 2 2 2 2 2 3 3 4 5 6 8 10 14 18
4 4 4 4 2 2 2 2 2 2 2 2 2 2 2 2 2 2 3 3 3 4 5 6 8 11 13
3 3 3 2 2 2 2 2 2 2 2 2 2 2 2 2 2 2 3 3 4 4 5 6 7 9 12
3 2 2 2 2 2 2 2 2 1 1 2 2 2 2 2 2 2 2 3 4 4 5 5 6 8 10
2 3 3 2 2 2 1 1 2 1 1 1 1 2 2 2 2 2 2 3 5 5 5 6 6 7 8
2 3 3 2 1 2 2 1 1 1 1 1 2 2 2 3 2 3 3 4 5 6 6 6 6 7 8
2 2 2 2 2 2 2 2 2 2 2 2 3 3 3 3 3 3 3 4 6 6 6 7 7 8 9
2 2 3 3 2 2 2 3 4 4 3 3 3 3 3 3 3 3 4 5 6 6 7 7 8 8 11
2 3 3 2 3 4 4 5 4 4 4 4 4 3 3 3 4 5 5 6 6 7 8 8 8 9 10
4 4 3 4 4 5 5 5 4 4 4 4 4 4 4 4 4 5 6 7 7 8 9 10 9 9 10
4 4 5 5 5 5 6 6 6 5 5 4 4 5 5 6 6 6 6 6 7 7 8 10 10 9 9
4 6 6 6 7 7 7 7 7 7 6 6 7 7 7 6 6 6 7 7 7 9 11 12 12 11 9
7 7 8 8 9 9 9 8 8 8 8 8 8 8 8 7 7 7 8 9 10 11 12 13 13 11 10
8 8 9 10 10 10 10 10 10 10 10 10 10 11 12 12 13 12 12 12 14 15 16 16 14 13 12
9 10 12 12 13 12 12 12 12 12 12 12 12 12 14 15 15 14 14 14 14 16 17 16 15 14 13
11 12 13 14 15 15 15 15 16 17 17 16 16 15 16 18 20 19 18 16 15 14 14 16 16 16 16

GFSFLT2_250_rhum_030.txt.gz
RH
25 25 22 13 8 5 4 3 3 3 3 2 2 2 2 3 3 3 3 3 3 4 4 5 5 6 7
15 10 7 6 5 4 4 4 3 3 2 2 2 2 2 2 2 2 2 2 2 3 3 4 4 5 6
6 5 5 4 4 4 4 3 2 2 2 2 2 2 2 2 2 2 2 2 2 2 3 3 4 4 4
5 5 4 5 4 3 3 2 2 2 2 2 2 2 2 2 2 2 2 2 1 2 3 3 4 4 4
4 4 4 4 2 2 2 2 2 2 2 1 1 2 1 1 1 1 1 1 2 2 2 3 4 4 4
4 3 3 2 2 2 2 2 2 1 2 2 2 1 1 1 1 1 1 1 2 2 2 3 4 4 4
3 2 3 2 2 2 2 2 3 2 2 1 2 2 2 2 1 1 1 1 2 2 2 3 4 4 5
3 3 2 2 2 2 2 2 2 2 2 2 3 3 3 3 2 2 2 2 2 2 2 3 4 4 5
3 3 3 3 3 3 2 2 3 4 4 4 4 4 4 4 3 3 3 3 3 3 3 3 3 4 5
3 3 3 3 3 3 3 4 4 4 4 5 5 5 4 4 4 4 3 3 3 3 3 3 4 5 5
3 3 3 3 3 4 5 5 5 5 5 5 5 5 4 4 4 4 3 3 3 3 3 4 4 5 5
3 4 4 4 5 6 7 6 6 6 6 6 6 5 5 5 4 5 5 4 4 4 4 5 5 6 6
4 4 5 6 7 8 8 8 7 8 8 7 7 7 7 7 7 6 6 7 6 6 7 6 6 6 7
5 6 8 9 9 9 10 9 9 9 10 9 9 8 7 7 8 8 8 9 9 8 8 8 8 8 8
8 10 11 10 10 11 11 11 11 10 10 10 10 10 11 12 10 9 9 8 10 10 9 9 10 11 11
11 11 11 12 13 14 13 12 12 12 12 12 12 11 11 13 14 14 14 13 11 12 13 14 15 15 14
12 12 13 15 16 15 16 17 16 18 18 16 15 14 14 15 17 16 15 15 16 17 18 19 19 17 17

GFSFLT2_250_rhum_033.txt.gz
RH
25 25 25 23 22 16 10 7 5 5 4 4 4 3 4 4 3 3 3 3 3 3 3 3 3 4 4
23 20 14 9 6 5 5 4 4 3 3 3 3 3 3 3 3 2 2 2 2 2 2 2 2 3 3
7 6 6 5 4 4 4 3 3 3 3 3 3 2 2 2 2 2 2 2 2 2 2 2 2 2 2
4 5 4 4 3 3 3 3 2 2 2 2 2 2 2 2 2 2 2 2 2 2 2 2 2 2 2
4 4 4 3 3 3 2 3 2 2 3 2 2 2 2 2 2 1 1 1 1 1 1 2 2 2 2
3 3 3 3 3 2 2 3 3 2 2 2 2 2 2 2 2 2 2 1 1 1 1 1 2 2 2
3 3 3 3 3 2 2 2 2 2 3 2 3 2 2 2 2 2 2 1 1 1 1 1 1 2 2
3 3 3 3 2 2 2 2 2 3 3 2 3 2 3 3 3 3 2 2 2 2 1 1 1 1 2
3 3 3 3 3 2 2 3 3 3 4 3 3 3 4 3 3 3 3 3 2 2 1 1 1 1 2
3 3 3 3 3 3 3 3 3 4 4 4 4 4 4 4 4 4 4 3 3 3 2 2 2 2 2
2 2 3 4 4 4 5 5 5 6 6 6 5 5 5 5 4 4 4 4 3 3 3 3 3 3 3
3 4 4 5 6 6 6 7 7 7 7 7 6 6 6 5 5 5 4 4 4 4 3 3 3 3 3
4 5 6 6 7 8 8 8 8 8 8 8 8 7 7 7 5 5 4 4 4 4 4 4 3 3 4
6 7 8 9 9 10 9 9 9 9 8 9 9 10 9 8 7 7 6 5 5 6 5 5 5 4 4
9 10 10 11 11 12 12 10 10 10 10 10 10 10 11 12 8 8 8 8 7 7 7 7 7 7 8
11 11 11 12 14 14 14 13 14 15 15 12 12 12 12 13 12 9 9 9 9 9 9 10 9 8 8
12 12 12 12 14 16 17 18 18 19 24 21 17 14 13 14 15 14 12 11 10 11 11 11 12 11 11

GFSFLT2_250_rhum_036.txt.gz
RH
26 26 24 21 19 14 10 8 8 7 5 4 4 4 4 4 4 4 4 4 4 4 4 4 4 4 5
22 20 14 10 6 5 4 4 3 4 3 3 3 3 3 3 3 3 3 3 3 3 3 3 3 4 4
6 6 6 5 5 5 4 3 3 3 3 3 3 3 3 3 2 2 2 2 3 3 3 2 3 3 3
5 5 4 4 3 3 3 3 3 2 2 2 2 2 2 2 2 2 2 2 2 2 2 2 2 2 2
4 4 4 3 3 3 3 3 2 2 3 2 2 2 2 2 2 2 2 2 2 2 2 2 2 2 2
3 3 3 3 3 3 3 2 2 2 2 2 2 2 2 2 2 2 2 2 2 2 2 2 2 1 1
3 3 3 3 3 2 2 2 2 2 2 2 2 2 2 2 2 2 2 2 2 2 2 2 2 2 2
3 3 3 3 2 2 2 2 2 3 2 3 3 2 3 3 3 3 3 2 2 2 2 2 2 1 1
3 3 2 2 2 2 2 3 3 4 4 4 4 3 4 4 4 4 3 3 3 3 3 2 2 2 1
3 2 3 3 3 4 4 4 4 4 6 6 6 5 5 5 4 4 4 3 3 3 3 3 2 2 2
3 3 3 4 4 5 6 6 6 6 7 7 7 6 5 6 5 4 4 4 4 4 3 3 3 2 2
3 4 4 5 7 8 8 9 9 8 8 8 7 7 6 6 6 5 4 4 4 4 4 3 3 2 2
5 6 7 8 9 10 9 10 9 8 9 9 8 8 8 8 7 6 5 4 4 3 3 3 3 3 2
8 9 9 10 10 10 10 11 12 10 10 10 10 9 9 9 8 7 6 4 4 4 3 3 3 3 3
10 10 11 12 12 11 11 13 13 12 13 13 12 11 10 10 10 7 7 6 5 5 4 4 4 4 3
12 12 13 14 14 13 13 13 14 17 18 18 17 14 12 12 13 10 8 8 7 6 6 5 5 5 5
18 20 20 20 20 21 19 15 13 15 20 21 19 18 16 13 15 15 11 9 9 8 7 7 8 8 8

GFSFLT2_250_rhum_039.txt.gz
RH
22 23 20 13 10 8 6 4 4 4 4 4 4 4 4 4 5 4 4 4 4 4 4 4 5 6 8
15 11 10 6 4 4 3 3 3 3 3 3 3 3 3 3 3 3 3 3 2 3 3 3 3 3 3
6 5 5 4 4 3 2 2 2 2 2 3 2 2 2 2 2 3 3 3 3 3 3 3 3 3 3
5 4 3 3 3 3 3 2 2 2 2 2 2 2 2 2 2 2 2 2 2 2 2 2 2 2 2
4 3 2 3 3 2 3 3 2 3 2 2 3 2 2 2 2 2 2 2 2 2 2 2 2 2 2
3 3 3 3 2 3 3 3 3 3 2 2 2 2 2 2 2 2 2 2 2 2 2 2 2 2 2
4 3 3 3 3 3 2 2 2 2 2 2 2 2 2 2 2 2 2 2 2 2 2 2 2 2 2
3 3 3 2 2 2 2 2 2 2 2 2 2 2 3 4 3 3 3 3 3 2 2 2 2 2 2
3 2 2 2 2 2 2 3 3 4 4 4 4 3 4 4 4 4 4 3 3 3 3 3 3 2 2
3 3 3 3 3 4 4 5 5 4 5 6 6 6 4 6 5 4 4 4 4 4 4 3 3 3 2
3 3 4 4 5 6 7 8 7 8 9 8 7 7 6 6 6 6 5 5 5 4 4 3 3 3 3
4 4 5 6 8 8 9 10 10 11 10 10 8 7 8 8 7 7 6 6 5 4 4 3 3 3 3
6 7 8 9 10 10 10 11 12 12 12 12 12 11 9 8 9 9 7 7 6 5 4 4 3 3 3
9 10 11 12 11 11 11 10 11 14 13 12 15 13 11 10 9 9 7 7 6 5 4 4 3 3 3
12 12 14 15 16 15 15 15 14 13 13 14 18 17 13 11 10 11 7 7 7 6 4 4 4 3 3
14 15 16 16 17 20 19 16 16 18 14 15 18 20 16 12 12 13 8 9 8 7 4 4 4 4 4
14 15 16 19 18 18 19 19 14 16 18 14 17 20 18 15 13 14 10 10 9 8 6 4 4 4 4

GFSFLT2_250_rhum_042.txt.gz
RH
23 27 26 16 8 5 3 3 3 3 2 3 3 3 3 3 3 3 3 3 3 4 4 4 6 7 10
20 22 13 7 5 4 3 2 2 2 2 2 2 2 2 2 2 2 2 2 2 2 2 3 4 4 4
15 9 7 5 4 3 3 2 2 3 2 2 2 2 2 2 2 2 2 3 3 2 2 2 2 2 3
7 6 5 4 3 3 3 2 2 3 2 2 2 2 2 2 2 2 2 2 2 2 2 2 2 2 2
6 5 4 4 3 3 3 3 2 2 2 2 2 2 2 2 2 2 2 2 2 2 2 2 2 2 2
5 4 4 3 3 3 3 2 2 2 2 2 2 2 2 2 2 2 2 2 2 2 2 2 2 2 2
5 4 4 3 3 2 2 3 3 3 2 2 2 2 3 3 3 3 2 2 2 2 2 2 2 2 2
4 4 3 3 3 3 3 3 4 4 4 3 4 2 4 4 3 4 4 3 3 3 3 2 2 2 2
4 4 3 3 4 4 3 3 4 5 6 7 6 4 6 6 5 5 4 4 5 4 4 4 3 3 3
4 4 4 4 5 5 6 6 6 6 7 7 8 9 6 7 6 6 6 5 5 5 4 4 4 3 3
4 4 4 5 6 7 8 9 9 8 10 9 8 9 8 7 8 7 6 6 6 5 4 4 4 3 3
4 5 5 6 7 9 10 11 13 12 11 10 10 10 9 10 10 8 8 8 7 6 5 4 3 3 3
5 7 7 9 9 10 13 14 17 17 15 14 11 12 13 15 10 9 9 9 7 6 4 4 3 3 3
6 8 10 11 13 12 12 12 12 19 18 16 12 13 17 17 12 12 12 10 7 6 5 4 3 3 3
12 11 11 11 12 13 13 14 15 15 19 17 14 14 18 17 14 14 14 9 8 6 5 4 4 3 3
12 12 12 10 10 11 12 14 13 16 18 16 16 14 18 19 16 16 13 10 9 6 6 5 4 4 3
13 10 8 8 8 8 9 12 15 16 21 15 16 14 19 19 17 18 12 11 9 8 8 5 4 4 3

GFSFLT2_250_rhum_045.txt.gz
RH
36 33 25 20 20 13 8 5 5 4 4 3 2 2 2 2 2 2 2 2 2 2 2 2 3 3 4
31 27 27 22 13 8 6 4 4 3 3 2 2 3 2 2 2 2 2 2 2 2 2 2 2 2 3
27 31 23 12 7 6 4 4 3 3 3 2 3 2 2 2 2 2 2 2 2 2 2 2 2 2 2
27 20 11 6 6 5 4 4 3 3 2 2 2 2 2 2 2 2 2 2 2 2 2 2 2 2 2
17 7 6 6 5 4 4 3 3 3 2 2 2 2 2 2 2 2 2 2 2 2 2 2 2 2 2
7 6 5 4 4 4 4 3 2 3 3 2 3 2 3 3 2 2 2 2 2 2 2 2 2 2 2
6 5 5 5 4 4 3 3 4 5 4 2 4 3 5 5 5 5 4 3 3 3 2 2 2 2 2
5 5 5 4 4 3 4 3 3 5 8 6 6 6 6 6 6 6 5 4 5 4 3 3 2 2 2
5 5 4 4 4 5 4 4 4 4 8 8 10 8 8 8 7 8 8 6 5 5 5 4 4 3 3
5 4 4 4 5 6 7 6 7 6 9 8 10 10 7 9 9 9 7 7 6 6 5 5 4 4 3
4 4 4 5 5 7 11 12 12 11 13 12 10 10 12 9 7 8 10 7 7 6 5 5 4 4 4
4 5 5 6 9 10 12 13 15 16 11 15 15 14 13 10 10 9 13 9 7 6 5 5 4 4 4
5 5 6 8 9 8 10 12 12 17 17 19 18 16 16 13 12 14 10 9 8 7 5 5 4 3 3
6 8 9 8 9 9 7 8 9 14 20 18 18 15 16 14 16 16 12 9 9 7 5 5 4 3 3
11 11 10 8 8 8 7 6 7 8 14 18 16 15 15 12 17 15 12 12 8 7 6 4 3 3 3
10 11 9 8 6 6 6 8 8 10 11 13 14 13 14 13 17 14 14 10 8 7 5 3 3 3 3
9 8 7 6 6 6 6 9 11 11 12 13 13 12 14 15 18 16 13 11 8 7 5 4 4 3 3

GFSFLT2_250_rhum_048.txt.gz
RH
19 22 22 22 22 21 19 17 17 13 8 5 5 4 4 4 3 3 3 3 2 2 2 3 2 2 3
39 38 27 24 23 22 20 15 8 6 5 4 4 4 3 4 4 3 3 3 3 2 2 2 2 2 2
31 27 30 25 24 20 11 6 5 4 4 4 4 4 3 3 3 3 3 2 2 2 2 2 2 2 2
22 25 25 23 14 8 6 4 4 4 4 4 3 3 3 3 3 2 2 2 2 2 2 2 2 2 2
22 23 20 13 8 5 4 4 4 4 4 3 3 3 3 3 3 3 3 3 2 2 2 2 2 2 2
24 18 11 6 5 4 4 4 4 3 4 3 3 3 4 5 4 4 4 4 3 3 2 2 2 2 2
18 10 6 4 4 5 5 4 3 4 5 3 4 5 5 6 6 6 5 5 5 4 4 4 3 2 2
8 5 4 4 5 5 4 4 3 4 6 5 6 6 5 8 8 8 7 7 6 5 4 5 4 4 3
5 4 5 6 4 4 5 5 5 4 7 8 10 11 6 11 12 10 9 9 8 7 6 6 6 5 3
4 5 5 4 5 6 7 7 9 9 9 10 10 13 7 11 14 12 11 10 9 9 7 6 6 6 4
6 5 4 4 5 6 7 12 13 13 15 13 9 10 12 8 12 12 14 11 9 9 9 8 6 6 5
4 4 5 5 5 6 9 9 11 14 12 11 10 11 11 14 16 6 9 11 11 11 8 7 6 6 6
4 5 5 6 9 8 6 6 6 9 9 8 9 10 12 14 16 10 10 9 12 9 8 7 6 6 5
6 6 8 8 8 7 6 6 6 6 11 7 7 9 11 14 13 10 12 11 11 11 9 7 6 5 4
7 9 8 7 7 6 6 6 6 6 10 9 7 9 12 13 12 12 13 15 12 10 8 7 5 4 4
9 7 7 7 6 5 5 6 6 9 10 10 10 12 13 13 11 13 15 13 13 9 8 6 4 4 3
7 6 6 5 6 6 6 6 8 9 10 10 11 10 12 10 12 14 16 15 10 8 6 5 4 4 3

GFSFLT2_250_rhum_051.txt.gz
RH
47 35 24 16 15 16 17 24 20 19 18 18 18 12 7 5 5 4 4 4 3 3 3 4 3 3 3
30 22 19 18 20 23 20 20 19 18 17 10 7 5 4 4 4 4 4 4 3 3 3 3 3 3 3
23 21 24 28 22 20 19 19 17 10 7 5 4 3 3 4 4 4 3 3 3 3 3 2 2 2 3
21 31 28 20 19 19 20 17 9 5 4 3 4 4 4 4 3 3 3 3 3 3 3 3 2 2 2
33 22 19 20 21 19 13 8 4 3 4 4 4 4 3 3 4 4 3 3 3 3 3 3 2 2 2
18 17 23 22 18 10 5 4 3 3 5 3 3 3 4 4 4 5 5 5 5 4 4 4 3 3 3
21 22 20 16 8 5 3 4 4 4 3 4 3 4 5 5 8 7 6 6 7 6 6 5 6 5 5
22 18 10 6 4 4 5 6 3 3 4 6 4 4 4 6 11 12 11 9 10 8 7 8 8 7 6
17 8 5 3 4 6 5 4 5 4 4 6 5 9 6 7 11 13 11 11 11 8 9 8 7 7 6
7 4 3 5 5 4 5 6 6 7 6 9 7 10 8 6 8 11 9 12 10 9 11 10 9 7 7
4 3 5 5 4 5 5 6 10 11 10 10 7 7 8 8 5 9 9 12 11 12 11 11 9 8 8
4 5 5 4 5 5 6 8 8 10 8 7 7 7 6 6 5 6 9 12 12 11 12 10 12 11 10
6 4 5 5 6 7 6 7 6 7 7 6 5 5 6 5 5 6 6 10 11 12 11 13 10 8 8
5 5 5 6 7 7 6 6 5 5 7 5 4 5 5 6 6 7 8 8 10 10 12 11 9 8 6
6 6 7 6 6 6 5 5 5 4 6 7 5 6 7 8 8 10 12 10 10 12 12 10 8 7 6
7 6 5 5 5 4 4 5 5 5 6 6 7 8 8 9 10 11 10 11 15 15 11 9 8 6 4
7 6 5 4 4 4 5 5 5 5 7 7 7 8 8 8 10 11 12 15 16 12 11 8 6 4 4

GFSFLT2_250_rhum_054.txt.gz
RH
61 58 54 45 34 26 20 14 14 18 26 21 18 18 17 16 15 11 7 5 4 4 3 3 3 3 3
52 48 35 28 20 14 14 15 26 23 17 16 17 16 13 8 5 4 4 3 3 3 3 4 3 3 4
37 31 21 13 14 15 24 27 19 16 16 15 14 8 5 4 3 3 3 4 4 3 3 3 3 3 3
27 16 15 15 21 26 27 22 20 16 13 8 5 4 3 3 4 4 4 3 3 3 2 3 3 2 2
20 17 20 24 25 25 22 22 16 8 6 4 3 3 4 4 4 3 3 3 3 3 3 4 4 4 3
19 25 25 27 25 24 18 13 8 4 3 3 4 4 3 3 4 5 5 4 4 3 3 4 4 4 4
23 27 31 26 20 13 8 6 4 3 4 5 3 2 3 3 5 8 7 6 4 5 6 7 7 6 5
32 27 21 14 8 7 6 4 4 4 3 5 4 3 3 3 7 10 12 10 9 8 7 8 8 8 8
25 18 10 7 6 4 3 5 5 4 3 5 4 5 5 4 6 8 9 9 10 9 9 8 8 10 9
15 7 6 6 3 4 5 4 4 5 4 6 6 6 6 4 6 8 7 7 7 7 7 7 9 10 12
8 8 5 3 4 4 3 4 5 7 8 7 6 5 6 6 3 6 6 6 6 5 6 8 8 12 11
7 4 3 5 4 4 4 5 5 6 6 5 4 4 4 4 4 4 5 6 6 6 6 9 10 11 10
4 4 5 4 4 5 5 5 4 4 5 4 3 4 4 5 4 5 6 8 7 7 8 10 11 10 10
5 5 4 4 5 5 5 4 4 3 5 4 3 4 4 4 6 8 8 10 11 10 10 11 10 11 11
4 4 5 6 5 4 4 4 4 4 4 6 4 4 5 6 8 9 9 9 10 11 12 14 14 10 8
5 6 6 4 4 3 4 5 5 5 5 5 4 5 7 8 8 8 9 9 10 12 12 9 8 7 6
7 5 4 4 3 4 4 4 5 5 6 5 7 7 7 7 7 8 9 11 13 12 10 8 6 5 4

GFSFLT2_250_rhum_057.txt.gz
RH
71 66 59 57 51 47 38 37 30 26 21 15 16 22 27 24 20 16 12 11 11 10 9 8 6 5 5
63 61 58 49 42 40 32 28 21 14 16 24 27 24 20 14 13 10 10 7 5 4 3 3 3 3 2
56 50 45 44 36 29 24 16 16 23 27 21 19 14 11 9 7 5 4 3 2 2 2 3 3 3 3
48 48 44 34 28 19 20 24 29 23 18 13 10 7 5 4 4 3 3 3 4 3 3 3 3 3 3
49 36 32 22 20 24 27 28 23 14 10 7 5 4 3 2 2 4 5 5 4 3 3 3 3 3 3
36 26 22 24 28 27 25 22 14 6 5 6 4 3 2 3 4 4 4 5 5 4 3 3 4 4 4
25 26 30 29 26 20 12 8 6 6 5 4 2 3 3 3 3 4 5 6 6 5 4 4 5 5 6
32 29 23 21 14 9 7 7 6 4 3 4 4 4 3 2 3 5 7 9 9 9 7 6 6 7 7
28 23 18 10 7 7 6 4 3 3 4 4 3 4 4 3 4 6 7 8 8 7 7 7 6 6 6
24 15 8 6 6 4 3 3 4 4 3 5 4 4 5 4 4 5 6 7 6 5 6 6 6 6 6
14 8 7 6 3 3 3 4 3 4 4 6 5 4 4 4 3 4 6 4 4 4 4 5 6 7 6
8 7 5 3 3 4 3 3 4 4 5 4 4 3 4 4 4 4 5 5 5 5 5 5 6 6 6
7 4 3 4 4 3 4 4 4 3 4 4 4 3 4 4 4 5 5 6 5 6 6 6 6 6 6
4 4 5 4 4 4 4 4 4 3 4 5 4 5 5 5 5 5 6 6 6 7 8 7 6 6 7
5 4 5 5 4 3 4 4 4 4 4 5 5 5 5 5 6 6 7 8 7 6 7 9 8 8 8
5 5 5 4 4 4 4 4 4 4 4 5 6 6 7 7 7 7 6 7 8 9 9 11 11 10 9
6 5 5 5 4 4 4 3 3 4 4 4 5 6 6 6 6 6 7 8 10 13 12 10 10 9 7

GFSFLT2_250_rhum_060.txt.gz
RH
85 81 98 99 94 84 79 77 57 49 50 41 40 35 28 22 17 18 21 22 21 18 16 14 11 10 9
89 86 79 80 71 67 52 50 50 44 43 33 23 19 20 24 24 21 17 14 11 10 9 7 6 5 5
66 67 67 61 46 51 57 49 44 31 22 21 23 26 26 20 14 11 9 7 5 4 4 4 3 3 3
63 57 53 58 59 50 53 46 31 22 26 29 22 18 13 9 6 5 5 5 5 4 3 2 2 2 2
63 64 61 53 51 47 33 29 32 26 23 24 12 8 5 4 4 4 3 3 3 3 3 3 3 3 3
63 52 56 40 33 32 32 29 30 22 16 10 6 6 5 3 2 2 2 4 4 4 3 3 2 2 3
50 40 36 35 35 31 24 21 17 9 7 7 5 3 2 2 2 3 4 3 4 4 4 3 3 3 3
39 39 36 29 21 20 17 12 8 6 5 4 3 3 4 3 2 2 3 4 4 5 6 5 5 5 5
38 30 26 23 18 13 8 7 6 4 2 3 4 4 4 3 2 3 5 6 6 6 5 5 5 5 5
32 26 21 16 9 6 6 4 3 4 3 4 4 4 5 4 3 3 4 5 4 4 4 4 4 5 6
26 18 11 8 6 5 3 3 4 4 3 5 6 4 4 4 4 3 4 4 3 3 3 3 4 4 4
14 9 7 6 4 3 4 3 3 4 4 3 4 3 3 4 4 4 4 4 3 4 4 4 4 4 4
8 7 6 4 4 4 4 4 3 3 3 4 3 3 4 4 4 4 4 4 4 4 4 4 4 4 4
6 5 4 5 4 5 4 4 4 3 3 4 3 3 4 4 4 5 4 4 4 4 5 5 5 6 6
5 6 6 6 5 4 4 4 3 3 3 3 3 4 4 5 5 5 5 5 6 6 7 8 8 8 8
6 6 7 5 4 4 4 3 3 3 3 4 4 4 4 5 6 6 6 6 7 7 8 8 8 7 8
8 7 6 6 6 5 4 4 4 4 4 4 4 5 5 5 6 6 6 6 7 7 9 10 11 10 10

GFSFLT2_250_rhum_063.txt.gz
RH
70 80 70 63 80 93 88 84 81 82 76 68 62 56 54 52 48 43 39 32 22 18 18 19 19 20 17
69 72 62 78 81 80 84 80 69 62 59 55 50 48 48 40 29 24 23 23 22 25 24 22 17 13 10
63 60 69 67 65 67 64 64 59 53 50 45 36 28 25 24 24 26 24 20 18 14 10 7 5 4 4
59 61 62 60 62 62 62 57 52 39 33 32 30 30 28 22 19 17 14 9 6 5 5 4 4 3 3
68 72 67 66 58 54 49 39 38 35 34 30 21 20 18 14 9 5 4 5 5 4 3 2 2 2 2
81 76 60 53 51 39 40 38 30 29 25 22 14 9 6 5 5 4 4 3 2 3 3 3 3 3 3
60 59 47 42 41 38 32 27 23 18 10 9 6 6 5 4 3 2 2 2 3 4 4 3 2 2 2
56 53 47 37 30 25 21 16 12 7 4 5 5 4 3 3 3 2 2 2 3 7 5 2 3 3 3
48 41 35 27 20 16 11 8 6 5 4 3 3 4 4 4 3 2 2 3 5 4 3 3 4 4 4
41 30 26 20 11 7 6 5 4 4 3 4 4 3 4 4 3 2 2 3 4 3 2 3 3 3 3
32 25 15 10 8 6 4 3 3 4 4 4 4 3 3 4 3 2 3 3 3 3 3 3 3 3 3
17 12 9 6 6 4 4 4 3 4 4 3 4 3 3 3 3 3 3 4 3 4 4 4 4 4 3
10 8 6 6 5 5 5 5 5 4 3 3 3 3 2 3 3 4 4 4 5 5 4 5 4 4 4
8 6 6 6 6 6 6 6 5 4 4 4 3 3 3 4 4 5 5 6 6 5 5 5 5 5 5
6 6 7 6 7 7 6 6 5 4 4 4 4 4 4 4 5 5 6 6 6 6 7 6 6 7 7
7 8 7 8 7 7 7 6 6 6 6 6 5 5 5 5 5 6 6 6 7 7 7 7 7 8 8
8 8 8 7 8 8 8 9 11 12 12 12 12 10 8 8 9 8 8 9 10 10 11 12 12 12 12

GFSFLT2_250_rhum_066.txt.gz
RH
100 100 93 86 82 70 61 60 62 58 59 63 62 64 65 64 60 58 56 53 51 48 45 43 40 33 31
90 84 79 81 64 61 64 65 64 59 56 56 57 54 47 44 41 38 36 35 32 28 25 22 20 19 18
85 81 71 61 62 67 68 70 67 66 60 50 43 35 36 36 36 36 35 32 30 29 26 23 20 16 14
67 55 58 61 67 63 67 72 72 67 55 43 38 37 34 30 27 23 21 18 16 14 12 10 8 7 6
61 65 68 65 65 72 83 72 58 47 46 44 34 28 22 16 12 8 6 5 4 4 4 4 4 4 4
81 81 74 77 96 78 54 48 53 45 36 30 20 14 8 6 5 4 4 3 3 3 3 3 3 3 2
76 75 98 81 51 52 48 42 34 24 15 15 8 6 4 4 3 2 2 2 2 3 3 4 4 4 3
92 79 58 52 49 39 34 30 20 13 7 8 5 4 4 3 3 2 2 2 2 4 4 5 4 3 2
64 56 52 40 36 30 25 17 10 8 5 4 4 4 4 3 3 2 2 2 3 3 3 3 2 2 3
55 46 39 36 28 22 12 8 7 6 5 5 5 4 4 3 3 2 2 2 2 3 3 3 3 3 3
50 45 38 27 18 10 7 6 6 6 6 6 5 4 3 3 3 3 3 2 2 3 3 3 3 3 3
46 36 23 12 8 7 6 6 6 7 7 6 6 4 4 4 4 4 3 3 3 3 4 4 4 4 4
27 15 9 8 7 7 7 7 6 7 8 6 6 6 5 5 5 4 4 3 4 5 5 4 4 4 4
10 8 7 7 7 8 8 9 8 7 8 11 9 9 8 7 6 6 5 5 5 5 6 6 6 6 5
8 7 8 8 8 10 10 9 10 9 11 14 16 14 13 13 13 11 9 7 6 6 6 5 5 6 6
8 9 9 10 10 9 10 11 13 18 20 17 14 14 13 11 11 10 11 12 12 11 10 9 8 8 7
10 9 11 11 10 11 12 16 22 23 20 17 15 13 11 11 11 9 9 9 8 8 9 9 9 9 9

GFSFLT2_250_rhum_069.txt.gz
RH
82 90 94 86 79 73 68 64 68 71 64 54 53 56 52 54 53 52 47 45 45 45 45 44 45 48 49
73 80 84 82 87 75 79 84 70 64 55 54 56 54 48 43 37 40 40 35 28 24 24 26 28 28 27
78 69 79 78 83 82 80 66 68 67 62 54 50 40 38 31 34 34 28 32 33 30 26 24 23 22 22
98 99 93 86 79 66 72 76 76 68 59 46 47 41 41 39 29 27 23 18 14 10 8 7 6 6 6
92 91 73 61 68 75 72 68 73 59 65 57 45 45 35 28 21 13 8 6 6 5 4 4 4 4 4
75 71 75 78 74 65 70 70 73 61 59 58 44 35 25 14 7 5 4 3 2 2 3 3 2 2 2
69 76 77 72 75 84 84 69 60 53 41 42 32 23 10 6 4 3 3 3 3 3 3 3 3 3 3
84 87 88 84 80 69 60 54 49 42 30 32 21 9 6 4 4 4 4 4 3 3 2 2 3 3 3
98 90 79 67 61 54 48 42 37 27 16 11 8 6 5 4 5 5 4 4 3 3 2 2 2 2 2
75 68 62 52 43 40 39 34 22 11 9 8 6 6 7 5 5 6 4 4 4 4 3 3 2 2 2
57 51 43 38 38 33 20 11 9 8 7 8 8 8 7 8 6 9 7 4 5 4 4 4 4 3 3
49 44 40 35 22 11 9 8 7 9 9 9 9 8 10 11 12 10 12 8 6 5 5 5 5 5 5
42 38 28 13 10 8 8 8 8 9 10 9 10 12 15 16 13 12 11 12 11 8 6 5 5 5 5
25 13 10 9 9 10 10 9 10 8 10 12 15 18 15 13 12 10 10 9 10 10 10 8 6 6 6
10 10 9 10 10 11 12 11 11 10 10 14 18 17 16 13 10 12 9 10 10 9 9 9 11 11 7
9 10 10 10 11 12 11 11 12 18 19 19 16 12 13 18 15 11 13 13 11 9 9 8 7 8 10
11 11 13 13 12 12 12 14 21 23 24 20 17 15 14 14 17 15 13 12 11 12 11 8 8 8 7

GFSFLT2_250_rhum_072.txt.gz
RH
100 100 100 99 96 97 85 83 72 85 82 73 66 70 67 65 59 61 59 57 57 54 51 49 48 47 46
100 100 100 96 100 100 91 86 88 89 76 80 73 70 55 55 59 51 41 40 41 38 36 36 36 35 34
100 98 99 97 77 73 91 92 92 85 79 68 65 63 55 49 43 39 35 37 39 38 35 32 28 24 20
99 88 74 85 91 98 98 93 92 86 74 72 59 47 47 45 39 37 39 38 36 32 25 15 9 6 5
88 88 90 81 77 83 92 91 78 67 60 63 56 65 57 47 40 37 35 30 20 12 6 5 4 4 3
96 91 79 88 94 78 65 65 72 65 74 83 64 71 52 43 33 24 13 8 7 5 3 3 3 3 4
94 96 92 79 66 70 73 77 83 82 71 76 62 54 45 32 12 7 7 7 6 4 5 4 4 4 3
83 69 65 68 72 82 88 86 70 60 52 52 48 42 26 10 7 7 7 6 7 6 6 4 4 4 3
72 83 90 89 80 70 68 61 57 50 44 46 30 17 10 6 6 7 7 8 8 7 7 8 7 4 3
92 85 78 70 62 55 48 46 39 34 24 17 10 8 9 6 6 8 7 8 8 10 10 10 9 6 4
75 64 55 49 46 42 35 24 15 11 10 10 9 10 10 13 8 10 11 12 12 12 11 10 9 8 5
53 48 40 33 28 20 13 10 10 10 10 11 11 12 12 11 10 14 14 14 13 11 10 9 9 9 7
36 28 19 15 13 11 10 9 10 12 14 14 13 11 13 18 19 15 16 13 14 11 10 9 8 9 9
17 16 13 11 11 11 10 11 11 12 13 12 13 17 22 24 20 14 13 14 11 10 10 10 8 8 9
12 10 11 10 10 12 14 13 12 10 12 16 21 24 24 26 17 17 15 16 14 12 11 9 8 7 7
12 11 11 12 13 16 14 11 12 15 19 20 22 19 17 20 19 19 19 17 16 15 14 13 11 8 7
12 13 14 17 18 13 11 13 16 23 26 26 22 20 16 16 18 19 20 18 19 20 16 14 10 8 8

GFSFLT2_250_rhum_075.txt.gz
RH
100 100 100 100 99 77 74 80 100 100 100 100 97 100 85 76 85 76 86 81 69 62 65 70 67 63 55
100 100 100 100 76 69 71 75 81 82 87 100 100 80 70 69 77 74 72 70 72 73 67 58 50 46 43
100 100 90 67 70 86 88 90 97 83 88 85 86 76 81 86 81 72 64 59 51 46 43 43 41 40 38
98 88 80 73 77 87 83 90 96 91 89 84 82 71 65 57 47 40 42 44 45 41 41 41 36 28 20
82 78 71 79 86 82 81 84 90 86 84 87 75 61 57 50 45 45 43 42 45 47 47 36 21 10 6
71 72 79 80 88 90 94 87 92 80 60 58 52 52 52 45 43 43 42 44 44 35 18 8 7 5 5
82 85 86 80 74 79 69 60 56 52 52 62 55 56 50 45 43 39 31 23 13 9 7 6 6 5 5
83 82 81 77 73 72 66 63 62 54 49 57 52 51 45 28 20 15 11 10 8 8 8 7 6 6 5
71 75 76 75 72 67 59 57 60 52 48 48 33 26 17 10 10 10 9 10 9 9 9 8 8 8 7
91 82 71 67 63 59 56 52 42 34 25 21 12 11 12 8 8 9 10 11 12 11 12 12 12 11 8
67 67 65 58 49 40 32 26 21 18 14 12 10 9 9 12 8 9 9 10 13 16 15 12 10 10 8
56 48 37 30 27 25 21 18 12 12 11 11 10 10 12 14 12 10 9 13 17 15 15 14 12 11 10
36 36 33 24 19 14 12 11 11 11 13 12 12 13 13 13 15 11 16 14 15 15 15 14 13 12 11
43 25 18 14 11 11 11 10 11 12 18 16 14 14 15 20 20 20 20 17 16 16 16 16 15 12 11
26 17 11 11 11 11 11 11 13 14 12 13 14 17 22 26 24 23 22 20 19 17 16 15 16 15 9
17 12 11 12 11 13 14 18 16 13 14 13 19 23 26 23 21 22 23 23 27 30 27 23 20 23 17
14 12 12 12 13 14 19 17 15 16 18 22 23 24 22 22 22 23 24 27 27 30 24 20 16 15 15

GFSFLT2_250_rhum_078.txt.gz
RH
100 100 100 100 100 100 100 100 100 100 100 100 98 75 69 75 97 98 100 94 100 100 98 86 79 78 80
93 100 100 100 100 100 100 100 100 100 100 80 76 73 75 91 100 85 83 77 80 77 78 80 77 71 64
74 89 97 97 98 100 97 93 95 88 78 74 75 74 69 78 75 74 69 72 70 69 70 63 56 54 54
68 71 75 81 88 90 90 94 90 80 72 68 70 64 71 71 67 59 57 57 56 57 59 61 58 53 47
81 94 94 95 95 91 86 78 68 62 63 63 60 58 52 48 47 50 51 53 53 52 50 48 45 40 34
72 61 57 58 61 67 69 69 64 57 55 53 53 54 50 49 50 49 46 41 38 36 33 28 22 15 11
64 64 63 62 62 62 60 59 57 56 61 59 51 52 44 38 37 35 29 26 24 25 14 11 10 9 8
68 68 64 61 61 62 62 61 57 52 52 54 40 45 35 22 21 20 20 20 16 11 10 9 8 8 7
64 63 64 66 67 65 64 59 50 34 37 38 30 34 22 16 18 18 13 10 10 9 10 10 10 9 7
70 67 66 66 65 62 52 36 33 33 33 24 16 17 16 9 9 11 10 10 11 12 13 12 10 10 10
66 65 62 58 49 34 28 33 27 18 16 13 10 9 10 11 8 9 10 11 13 14 14 15 17 18 16
62 55 44 32 27 36 36 20 13 10 9 10 10 9 9 12 12 11 10 13 16 16 20 18 16 15 14
47 41 46 50 41 34 18 11 10 10 12 12 11 11 16 15 13 12 14 16 20 17 16 15 16 15 14
55 66 59 44 34 17 11 11 10 10 14 16 16 15 14 16 17 18 21 21 19 20 21 25 28 26 19
71 67 51 32 15 11 12 11 10 12 15 17 16 14 16 21 22 24 24 23 24 27 30 21 34 35 30
70 58 42 21 11 11 12 12 13 15 18 14 13 15 22 25 27 25 22 24 40 50 51 48 46 45 37
66 54 34 15 12 12 12 14 16 20 16 14 15 24 27 27 23 24 28 32 32 46 52 56 52 47 40

GFSFLT2_250_rhum_081.txt.gz
RH
46 60 60 66 88 91 100 100 100 100 100 100 100 100 100 100 100 100 100 98 99 80 80 81 89 90 93
37 50 64 80 71 78 99 90 89 100 100 86 100 100 100 100 92 100 100 90 81 72 76 74 68 67 67
35 44 58 61 76 81 78 83 71 85 95 89 83 82 92 94 86 85 73 65 59 61 64 67 67 65 65
57 60 62 62 60 63 67 71 74 83 80 74 65 64 61 56 54 55 56 59 60 62 64 65 65 62 61
61 62 62 60 58 58 58 58 58 61 61 59 62 61 58 58 60 61 63 64 63 64 64 63 61 57 54
52 56 58 60 64 65 66 64 63 64 60 57 61 54 50 46 47 46 43 40 40 41 41 40 38 35 32
62 64 65 68 70 68 62 58 56 57 60 45 48 42 36 32 32 27 26 27 26 24 22 20 16 14 12
71 77 81 81 75 67 62 60 57 55 57 45 35 31 24 23 24 28 29 25 20 18 15 14 12 11 9
71 71 71 71 68 66 65 56 43 37 37 37 36 43 30 22 17 14 13 12 11 10 10 10 9 9 8
63 69 70 69 67 63 50 36 47 45 48 41 30 25 14 9 9 11 12 11 10 10 10 10 11 10 10
64 67 70 68 62 47 35 46 47 44 38 23 12 9 10 10 8 11 11 12 14 15 14 13 13 13 14
65 69 68 53 38 37 53 52 44 36 19 11 10 10 10 10 10 11 14 15 15 13 15 17 19 24 22
61 57 52 50 50 57 52 44 35 20 14 12 12 10 11 13 13 16 12 16 17 18 23 26 24 22 18
56 49 50 60 58 57 50 40 26 13 13 14 13 13 14 20 18 14 17 18 24 25 23 22 28 31 27
42 41 58 64 58 61 55 33 17 13 12 14 16 17 20 18 17 17 22 25 24 25 22 27 41 43 39
45 53 59 56 63 57 38 21 14 13 12 15 18 19 17 20 19 24 26 26 26 30 43 43 59 68 65
46 47 53 62 61 42 24 15 14 13 13 17 20 17 15 20 26 28 27 24 32 51 65 68 73 82 77

GFSFLT2_250_rhum_087.txt.gz
RH
47 42 46 51 51 51 47 41 34 29 30 36 39 46 70 91 100 100 99 96 100 100 100 95 96 100 100
42 42 55 52 55 54 53 48 45 41 44 44 44 48 55 65 72 79 90 98 86 87 85 84 92 93 99
40 52 59 55 56 55 54 55 52 50 50 51 53 59 66 65 65 65 64 64 66 79 89 80 77 84 90
49 62 63 57 57 61 56 54 53 53 50 47 44 48 51 51 52 54 57 59 59 59 57 56 55 52 50
62 68 61 61 67 63 60 57 54 52 49 49 50 50 48 46 47 47 46 46 48 50 52 52 51 50 48
61 65 63 72 67 65 61 57 51 50 48 48 46 46 42 43 43 45 40 40 37 31 30 30 31 32 32
69 72 70 73 74 66 55 51 51 49 47 44 40 35 33 30 30 33 39 44 44 41 38 34 31 30 30
69 70 80 75 68 54 48 48 50 51 48 43 39 37 32 32 37 40 43 45 42 36 30 24 20 17 16
77 88 81 72 57 53 49 50 52 52 48 43 46 39 26 25 31 40 45 38 26 19 13 9 8 8 8
93 84 74 62 57 52 50 53 54 48 48 54 44 31 27 30 34 36 28 19 14 10 8 8 9 10 9
84 77 67 58 55 52 53 54 51 48 56 38 31 31 36 40 26 17 13 14 15 12 9 8 10 11 10
80 69 62 56 53 55 59 55 49 54 40 31 32 37 45 40 25 11 9 11 15 13 13 13 14 17 16
70 64 60 60 61 63 60 56 51 49 31 31 34 42 41 29 20 10 10 10 16 15 15 18 19 16 15
67 62 64 67 67 65 62 54 51 34 30 32 37 45 36 17 13 12 11 12 12 19 17 16 16 16 17
70 72 71 73 72 67 54 44 32 29 27 30 39 41 22 14 13 12 12 12 13 17 15 15 18 20 24
78 75 74 76 69 55 41 31 29 29 29 32 30 23 17 13 13 15 12 11 16 15 15 18 24 26 28
78 76 80 76 62 40 30 30 29 30 32 30 24 21 20 16 8 15 15 12 16 14 17 23 29 30 30

GFSFLT2_250_rhum_090.txt.gz
RH
55 72 75 78 51 44 44 58 62 65 64 60 57 55 53 48 46 48 49 53 58 55 56 59 79 89 94
68 80 88 51 45 42 53 58 65 61 62 58 56 52 52 52 52 53 54 54 53 54 57 62 61 57 56
78 84 54 48 45 48 49 63 64 65 64 61 59 52 50 49 50 51 52 52 52 53 53 54 54 54 53
80 58 50 48 49 50 67 67 69 71 67 60 53 49 46 48 48 47 46 44 41 42 42 43 49 52 54
65 61 53 53 55 67 76 71 71 71 65 63 55 50 44 45 46 45 42 38 40 39 35 35 35 38 43
71 55 60 55 62 78 69 75 80 72 64 54 48 45 44 47 44 38 38 40 38 29 26 28 32 37 38
57 69 62 77 90 80 85 79 73 67 56 52 47 45 48 47 40 38 39 29 28 30 34 37 36 34 30
70 81 90 93 84 80 82 76 69 59 52 46 47 49 51 45 42 41 30 28 30 38 41 36 29 22 18
77 94 92 96 89 88 77 69 60 54 51 49 52 52 45 43 41 33 28 30 36 43 38 27 16 11 8
88 92 98 100 89 78 73 63 56 54 57 59 57 53 44 40 30 26 27 34 41 39 28 19 11 8 9
92 98 100 90 82 75 67 62 62 62 62 60 52 43 35 30 23 23 29 35 30 21 20 16 11 10 9
94 98 92 84 76 73 68 67 61 61 64 62 45 34 31 28 25 24 30 22 14 15 17 14 11 10 10
93 94 84 77 77 74 74 71 68 67 65 48 34 31 29 26 29 30 32 16 13 14 15 12 11 11 12
91 83 80 81 78 78 78 75 71 69 54 38 31 30 30 27 30 31 22 20 16 14 14 12 12 14 17
82 80 76 76 82 79 80 79 77 61 37 29 30 30 32 31 35 25 21 20 17 14 14 12 13 18 16
81 77 79 87 85 84 86 86 74 48 31 28 26 26 29 35 32 25 20 22 16 12 14 12 16 18 13
82 84 87 89 95 91 87 78 58 37 30 26 26 27 32 38 30 15 19 18 15 11 13 16 16 16 13

GFSFLT2_250_rhum_093.txt.gz
RH
100 100 100 94 88 82 75 74 52 49 45 47 56 62 62 61 58 54 48 44 43 42 43 46 50 52 54
100 100 100 95 89 82 84 64 55 53 51 54 65 62 62 59 57 54 48 45 44 42 44 49 50 51 50
100 100 99 88 91 90 69 63 58 60 58 68 68 64 60 62 59 53 49 45 41 41 43 46 46 45 46
100 100 89 97 94 71 65 59 71 67 75 83 71 61 62 62 58 51 46 41 41 45 46 40 38 41 42
96 85 96 94 74 72 62 62 77 78 83 79 75 69 64 56 48 44 43 46 48 45 37 34 34 29 25
90 100 90 72 74 70 56 78 93 94 87 79 70 65 56 47 45 48 53 51 44 36 34 32 26 24 25
100 100 79 87 74 60 64 91 96 92 84 78 66 56 51 48 50 54 53 43 34 30 26 23 24 24 26
99 90 78 79 61 62 79 99 100 91 85 69 60 57 54 51 53 54 45 33 28 26 26 26 26 27 28
78 78 77 60 61 64 96 100 97 92 76 61 59 59 56 57 55 53 36 27 28 28 27 28 31 29 23
76 76 57 60 61 87 98 96 92 80 73 67 65 66 64 60 51 35 27 28 28 28 31 35 34 26 15
64 56 56 62 84 98 98 89 80 78 72 72 70 73 76 71 40 27 27 27 28 31 39 41 36 24 19
57 58 69 88 99 97 87 79 76 72 71 79 78 79 80 69 38 24 25 24 25 32 36 31 22 21 18
82 87 90 97 89 80 78 77 76 74 79 78 80 84 80 58 36 27 26 23 27 34 31 21 17 21 16
82 83 90 83 76 79 81 87 79 79 82 78 82 83 73 43 31 28 25 26 30 32 29 17 15 20 15
85 82 78 79 82 84 92 86 84 81 73 77 82 84 62 38 31 26 25 27 31 34 28 17 13 18 14
79 85 91 92 93 90 86 86 89 82 75 74 68 56 39 32 27 25 25 30 32 32 25 19 11 16 14
89 93 100 93 85 84 90 94 90 84 79 70 51 35 31 28 27 23 26 28 30 25 23 20 14 11 15

GFSFLT2_250_rhum_096.txt.gz
RH
93 84 93 80 96 99 100 100 94 77 73 82 63 58 48 52 56 54 54 57 55 51 49 47 44 42 39
84 96 84 100 100 100 100 96 91 80 88 76 64 59 54 61 60 63 58 55 52 48 42 40 39 39 39
90 93 100 100 100 100 95 96 93 84 94 75 70 54 65 69 69 62 62 61 51 44 44 42 42 44 45
100 99 100 100 100 97 95 97 97 99 84 80 60 58 74 70 68 71 64 54 48 48 49 48 48 45 40
100 100 100 100 96 95 93 99 98 84 82 70 58 67 80 78 75 69 58 54 50 50 54 53 45 34 30
100 100 100 100 88 94 98 99 88 79 69 61 59 81 85 83 74 64 62 56 53 55 54 45 32 28 23
100 91 99 90 91 99 100 88 85 71 60 60 74 91 88 78 67 65 61 58 61 58 44 30 26 24 23
94 97 99 93 100 96 80 80 70 62 59 63 90 89 82 67 65 66 63 65 64 58 36 26 25 23 22
93 99 93 100 90 80 67 63 61 60 64 90 91 88 72 66 68 68 66 71 68 56 34 28 26 23 22
100 100 95 78 73 64 62 69 64 86 93 88 78 70 71 73 71 70 67 70 68 55 40 31 26 24 26
95 82 76 65 57 76 85 88 97 94 80 73 70 78 85 81 72 65 64 62 55 48 38 33 28 27 28
78 74 62 59 74 83 89 92 84 75 76 80 88 87 88 84 71 59 56 48 36 35 32 30 27 28 32
64 60 62 74 81 79 79 78 78 82 82 90 91 89 87 80 76 57 53 38 28 29 27 25 24 26 32
69 65 61 68 72 81 83 86 83 79 87 87 86 85 80 77 68 58 40 31 28 24 24 23 24 26 30
64 61 66 75 83 88 92 84 78 84 81 84 83 85 87 73 64 44 30 27 24 22 23 26 24 24 26
70 70 75 78 80 85 81 80 85 81 80 76 76 81 74 71 44 28 25 23 24 23 19 16 13 10 15
70 69 72 78 86 80 81 83 80 84 79 77 76 72 64 39 30 22 21 21 18 12 11 11 11 8 9

GFSFLT2_250_rhum_099.txt.gz
RH
100 100 73 66 63 51 55 72 92 100 100 100 100 96 87 92 67 65 59 48 60 60 58 54 48 45 44
96 70 67 62 72 63 55 89 100 100 100 100 96 84 75 79 72 65 54 50 62 62 54 49 47 47 48
60 54 64 84 87 68 92 88 100 100 100 100 95 85 83 82 73 66 56 54 64 66 56 50 50 49 52
38 67 65 68 44 85 89 100 100 100 100 96 92 85 82 75 68 64 58 68 73 65 56 55 53 53 58
55 86 88 33 88 79 99 100 100 100 98 95 89 83 75 63 61 63 65 83 75 62 62 58 55 54 58
81 38 33 64 76 100 100 100 99 89 94 93 85 70 60 60 62 73 87 79 65 66 63 59 56 57 58
24 27 49 77 84 92 94 80 95 96 93 78 66 59 70 78 90 89 78 68 70 68 64 60 59 59 60
26 44 76 78 83 97 86 100 98 91 73 61 62 85 86 82 80 72 70 74 74 70 64 59 56 58 54
38 61 65 84 100 88 97 86 78 68 58 67 85 84 78 68 67 75 76 75 73 72 66 59 60 54 36
63 80 94 100 83 99 77 72 62 60 74 81 78 68 70 74 79 78 72 71 74 71 62 66 61 42 30
82 92 95 86 83 68 62 63 62 65 70 68 68 75 82 79 70 68 68 69 64 58 66 59 39 29 25
92 91 96 77 65 60 62 65 64 67 70 73 73 76 76 79 71 65 66 59 55 60 54 38 29 26 24
99 93 72 70 68 63 64 67 70 72 71 74 78 85 84 77 72 59 58 53 52 43 29 24 22 21 22
78 74 76 69 66 67 65 65 68 72 71 79 89 86 79 75 68 64 52 56 45 27 23 22 20 18 14
75 79 72 74 72 70 71 75 77 76 84 89 90 87 82 71 70 60 62 42 26 22 20 22 16 11 11
80 76 78 82 77 79 81 81 82 86 90 95 92 90 78 71 68 59 38 27 22 21 20 16 13 9 10
84 82 88 89 87 86 85 87 90 94 89 91 92 85 71 65 70 35 27 22 21 18 15 12 10 9 9

GFSFLT2_250_rhum_102.txt.gz
RH
100 100 100 100 100 100 100 42 40 43 54 51 68 92 100 100 99 96 99 82 80 66 56 53 48 61 65
100 100 100 100 100 94 44 32 40 46 55 59 62 90 100 99 93 94 87 81 66 54 56 52 55 67 62
100 100 100 91 44 43 36 42 42 59 61 46 72 100 96 93 89 87 86 61 57 62 62 68 72 67 57
99 57 37 32 44 40 38 38 41 40 43 56 79 94 88 88 94 77 60 56 64 73 77 75 65 59 56
28 30 27 27 32 33 29 28 25 36 61 74 88 83 81 88 66 58 56 68 74 79 72 64 62 61 58
28 28 26 26 34 24 22 23 25 48 86 79 84 80 87 66 57 58 70 74 72 69 68 67 65 61 58
24 25 25 31 22 22 24 31 54 73 74 83 79 77 62 56 56 62 65 69 74 74 68 61 60 61 58
25 26 23 23 23 25 38 65 84 88 84 72 62 55 56 57 62 68 71 72 69 67 68 68 65 60 53
24 24 23 22 28 54 69 77 77 82 67 61 52 54 56 64 67 71 70 72 72 74 75 73 59 49 50
24 26 27 41 57 67 75 84 91 78 62 58 58 62 62 63 66 67 69 76 76 79 74 60 51 52 36
29 30 54 65 77 74 91 89 87 63 62 62 60 64 67 72 71 71 77 75 81 76 67 55 48 32 24
50 74 78 82 84 89 97 76 66 65 67 64 68 72 79 80 71 70 75 82 82 72 59 54 30 22 21
78 81 84 93 94 99 70 71 71 72 67 71 72 83 84 82 71 70 76 78 78 59 55 30 21 19 21
82 89 99 98 100 77 73 78 78 76 77 76 76 87 85 79 75 72 74 80 75 56 36 23 19 20 18
96 100 99 98 82 77 80 81 87 86 86 82 86 90 90 83 77 75 75 74 70 51 26 23 20 19 22
100 100 94 85 83 82 92 90 92 90 87 87 89 93 89 80 81 74 71 72 69 38 24 24 22 23 27
100 95 93 92 80 83 95 92 89 87 86 86 89 90 89 86 75 75 78 67 69 31 24 25 22 34 36

GFSFLT2_250_rhum_105.txt.gz
RH
91 96 100 100 100 98 92 100 100 100 100 75 33 34 32 36 31 43 66 78 82 77 80 59 55 56 68
99 99 100 86 92 100 100 100 100 48 36 34 32 29 35 31 30 53 80 86 79 84 69 54 58 67 68
100 100 100 100 100 100 80 35 32 35 34 30 26 30 25 28 46 82 79 78 82 72 54 56 58 57 56
100 100 100 84 49 38 32 33 35 32 28 27 27 26 30 49 75 80 73 74 62 56 55 56 57 58 57
98 60 40 38 34 33 32 32 25 24 26 25 28 30 45 66 73 76 67 52 53 54 59 59 57 59 60
42 38 34 29 32 31 23 23 25 24 26 28 32 52 59 68 80 66 54 53 56 57 58 61 63 61 57
32 31 30 27 26 22 23 26 26 26 29 31 58 66 68 84 72 61 58 58 57 59 63 66 67 64 59
28 26 26 24 22 22 25 26 27 30 35 67 71 74 85 74 61 61 60 63 62 64 65 69 70 61 52
21 22 22 21 24 25 26 29 30 40 69 76 85 90 74 64 62 61 66 69 67 69 68 71 68 59 45
21 22 23 25 25 27 34 37 51 89 80 91 94 72 66 66 65 65 72 71 73 71 70 69 67 54 46
22 24 25 25 31 39 49 70 86 92 98 99 77 70 71 73 70 69 74 77 75 74 70 71 68 53 49
27 28 30 35 45 67 91 87 93 100 100 88 75 77 77 77 76 76 78 80 78 78 74 71 64 53 48
28 34 38 50 67 85 90 96 100 100 92 85 77 83 86 87 81 83 81 79 80 82 76 71 64 53 39
38 47 59 68 93 97 100 100 100 97 91 78 86 93 90 86 81 79 82 77 77 81 79 69 64 55 34
60 70 84 93 97 100 100 100 100 99 86 75 89 96 91 86 82 82 81 79 83 86 85 69 61 57 31
80 90 92 96 100 100 100 100 100 100 94 85 87 86 89 88 87 84 84 84 88 88 84 76 65 59 30
95 99 100 100 100 100 100 100 100 100 96 100 94 92 86 83 83 83 85 89 95 90 84 75 68 61 31

GFSFLT2_250_rhum_108.txt.gz
RH
93 92 74 87 99 100 100 89 99 100 100 100 60 50 40 32 27 27 29 28 31 41 62 64 56 58 52
65 83 100 100 100 100 100 100 100 100 100 100 51 41 32 31 25 27 29 30 36 50 57 53 53 45 47
100 100 100 100 100 100 100 100 100 100 94 48 41 33 31 25 26 28 32 33 45 56 61 55 50 49 53
100 100 100 100 100 100 98 95 100 74 50 43 34 27 24 27 28 32 35 47 53 60 62 56 53 54 53
92 99 88 74 54 52 41 48 46 45 37 34 26 25 26 30 36 38 55 58 60 66 58 57 56 54 57
45 41 39 36 34 36 39 40 34 36 29 26 25 25 30 39 39 59 66 65 67 60 60 60 57 58 62
37 36 34 37 37 36 34 34 31 25 24 24 26 29 39 46 62 72 72 70 63 65 64 62 61 64 67
33 33 31 28 28 26 25 24 22 24 26 28 32 38 45 72 83 84 78 66 70 69 68 65 66 70 69
23 22 22 21 18 19 20 22 26 29 30 37 44 49 76 94 90 87 70 74 75 76 74 71 72 71 69
16 16 15 16 17 20 24 29 32 37 43 53 57 77 95 97 95 81 74 82 85 83 81 78 77 74 70
13 14 16 17 20 26 32 39 43 50 58 71 83 95 99 98 85 80 82 87 90 90 88 80 79 78 70
14 17 18 21 27 33 42 50 60 67 73 86 97 97 100 94 86 83 88 91 90 88 83 77 76 77 71
22 24 28 31 36 47 62 66 71 90 95 100 100 100 100 100 88 78 78 86 91 91 85 77 76 77 71
32 36 40 45 57 75 81 88 88 94 100 100 99 100 100 97 98 91 84 85 87 88 85 77 77 80 75
46 53 73 78 82 90 95 99 99 100 100 100 100 100 100 100 99 97 88 88 88 86 85 77 76 82 83
80 84 92 98 100 100 100 100 100 100 100 100 100 100 100 99 91 84 87 87 90 92 91 84 79 81 92
90 94 99 100 100 100 100 100 100 100 100 100 100 100 98 94 83 85 96 92 91 94 93 95 94 82 89

GFSFLT2_250_rhum_114.txt.gz
RH
100 100 100 100 73 54 58 33 35 36 36 39 40 45 52 56 46 42 49 44 39 36 30 26 26 30 34
100 100 100 88 34 31 34 36 34 41 38 38 41 43 38 35 36 38 41 38 36 34 28 24 31 34 44
92 58 51 36 35 39 35 37 38 36 35 34 33 34 35 39 39 40 36 38 36 27 24 28 36 47 56
32 32 31 32 32 32 33 33 34 32 32 32 32 33 35 37 36 37 38 32 28 25 26 35 50 62 68
28 27 26 26 28 31 29 31 32 32 31 31 34 36 37 36 37 35 30 28 24 28 33 46 66 79 78
26 24 26 28 28 30 31 32 34 32 33 33 34 33 36 34 29 28 27 24 28 34 42 59 89 90 84
24 23 23 24 27 29 30 30 30 29 29 28 28 27 24 24 23 23 25 29 37 47 62 85 96 100 88
22 22 21 22 24 25 25 25 23 21 21 20 20 20 19 20 20 24 29 37 50 66 89 99 100 93 79
20 21 20 19 18 17 18 18 17 16 16 16 16 16 18 19 25 29 38 51 66 93 100 100 99 84 74
18 18 18 19 18 17 15 14 15 14 14 14 15 18 21 26 32 40 57 68 88 100 100 100 99 87 85
17 17 15 14 14 14 13 13 13 14 16 17 19 24 32 40 48 64 78 92 100 100 100 100 100 100 94
14 14 15 15 15 14 15 15 18 21 22 26 31 38 47 66 76 83 95 100 100 100 100 100 100 100 94
18 17 17 17 17 18 22 25 28 28 32 41 45 53 77 92 95 98 100 100 100 100 100 100 100 99 100
20 21 22 25 29 30 31 34 40 47 50 55 65 79 90 96 100 100 100 100 100 100 100 100 100 100 100
29 33 37 41 39 39 46 58 67 74 73 85 93 93 100 100 100 100 100 100 100 100 100 100 100 100 100
43 52 54 54 48 54 66 77 85 94 95 99 100 100 100 100 100 100 100 100 100 100 100 94 98 100 100
59 62 69 68 67 63 75 83 91 96 96 100 100 100 100 100 99 97 98 100 100 100 100 100 96 99 100

GFSFLT2_250_rhum_117.txt.gz
RH
100 100 100 100 100 100 100 93 74 45 42 38 34 34 34 35 36 36 36 36 35 38 41 41 40 33 28
84 88 79 99 93 84 94 66 71 45 37 34 33 33 32 34 34 36 37 36 40 44 43 42 39 30 26
100 97 94 89 94 83 73 51 42 36 33 30 30 30 32 34 38 39 40 40 43 42 41 41 30 29 29
94 100 100 93 72 56 43 41 38 30 29 28 29 30 31 33 36 39 41 39 39 39 36 31 27 28 34
95 93 88 58 54 37 40 34 31 28 26 25 26 28 30 35 36 34 33 36 34 29 29 27 27 33 46
85 69 44 40 46 37 30 30 23 22 20 21 23 25 24 24 26 26 27 25 24 26 26 26 30 45 57
47 40 47 50 34 29 25 22 19 18 18 18 18 19 20 20 20 21 20 21 22 24 27 30 42 63 78
47 46 35 30 26 22 19 18 18 17 16 16 14 13 14 15 16 17 17 20 23 26 33 45 62 82 98
45 35 29 23 18 16 18 16 14 13 12 12 13 14 14 14 16 17 20 24 29 36 51 66 84 100 100
31 25 19 17 16 16 13 12 12 13 13 14 14 14 14 16 20 24 26 32 41 56 70 92 100 100 100
22 19 16 16 14 13 13 14 14 15 17 17 17 19 20 24 27 31 36 49 65 77 96 100 100 100 100
20 17 16 15 13 15 17 18 18 21 22 24 25 28 32 34 38 51 59 77 88 96 100 100 100 100 100
20 19 16 16 17 19 20 22 26 31 38 35 37 42 48 53 65 72 79 94 100 100 100 100 100 100 100
21 19 18 20 20 22 26 30 34 47 45 47 48 62 73 72 85 93 94 98 100 100 100 100 100 100 99
21 21 22 23 25 32 37 42 50 54 52 58 65 79 85 90 96 100 100 100 100 99 100 100 100 100 99
23 24 30 36 41 48 51 50 56 62 61 67 77 87 96 100 100 100 100 100 100 97 96 98 100 100 100
27 36 42 47 50 52 58 59 68 72 76 77 82 96 100 100 100 99 99 100 100 100 97 95 93 96 96

GFSFLT2_250_rhum_120.txt.gz
RH
100 90 94 91 100 100 100 94 100 84 69 79 65 50 41 37 37 40 39 39 41 40 38 42 44 43 46
75 94 87 95 100 96 90 100 88 75 71 61 52 36 41 31 31 34 35 33 29 31 39 40 43 43 43
99 100 100 100 100 85 59 63 64 65 59 53 36 41 28 29 28 27 30 28 29 32 34 35 36 38 43
100 95 93 100 93 64 66 66 56 67 49 34 33 30 27 24 24 23 25 25 25 26 29 31 31 33 34
100 99 99 94 72 51 62 78 46 52 40 38 25 24 20 20 20 21 21 21 21 22 24 26 27 30 30
100 94 82 65 56 63 56 56 60 56 34 25 22 18 17 18 18 16 16 15 16 17 19 22 26 29 31
88 75 72 66 46 54 62 54 59 33 29 23 18 15 14 14 14 14 14 15 16 17 18 22 28 29 33
73 76 60 46 49 79 68 63 42 34 23 19 14 12 12 13 14 14 14 15 16 17 20 25 31 34 41
70 50 55 70 83 69 58 49 32 25 19 15 12 13 14 14 14 14 16 17 18 21 24 31 37 47 63
66 59 94 78 69 65 41 34 22 18 15 13 14 15 14 16 17 19 21 22 26 28 32 36 48 62 89
72 87 78 81 52 49 39 23 18 15 15 16 16 17 19 21 27 28 29 30 30 33 38 45 59 86 100
89 79 77 49 47 30 21 18 15 14 17 19 19 25 30 40 37 39 37 38 39 47 53 60 84 100 100
74 55 48 51 24 20 19 17 15 18 21 24 32 39 47 48 49 54 54 57 57 67 77 91 100 100 100
52 35 29 19 20 20 18 16 18 20 28 39 44 50 54 63 72 74 76 73 72 85 95 100 100 100 100
26 21 19 20 22 20 17 20 22 32 38 41 48 53 58 72 80 84 80 86 90 98 100 100 100 100 100
19 19 21 23 22 20 22 25 35 41 50 54 52 58 75 85 87 93 89 94 100 100 100 100 100 100 100
22 26 27 26 28 28 27 38 45 55 61 63 65 65 95 98 97 94 92 100 100 100 100 100 100 100 100

GFSFLT2_250_rhum_123.txt.gz
RH
100 100 98 100 100 100 100 75 83 65 72 87 78 74 45 46 40 58 39 28 20 18 18 20 22 24 28
100 100 100 100 100 100 71 62 81 70 81 73 68 42 43 36 56 68 36 32 19 16 17 19 21 22 24
100 100 100 100 79 70 79 67 53 75 82 67 47 50 38 46 60 46 35 21 18 14 15 17 18 20 23
100 99 90 85 91 97 77 87 96 80 78 63 45 42 43 57 60 46 22 18 14 13 13 14 16 18 20
100 97 100 100 100 80 81 100 84 75 59 52 48 36 54 56 56 37 18 14 13 13 14 15 16 19 20
85 78 71 100 92 100 98 86 60 56 55 67 44 46 58 51 36 18 15 13 13 14 15 17 19 21 23
93 100 100 100 100 80 57 53 49 48 52 45 45 61 59 34 21 16 13 13 14 14 14 16 19 22 25
100 100 100 98 80 66 48 73 75 70 58 63 69 45 48 28 17 14 14 14 15 14 15 18 22 25 30
100 98 87 78 72 69 79 76 70 74 61 70 58 42 29 17 14 15 14 15 15 19 21 22 23 29 33
89 83 89 98 81 67 77 78 90 74 70 65 46 34 20 16 15 17 16 19 25 26 27 29 30 33 38
100 100 96 82 85 80 73 78 62 78 62 45 38 24 16 16 17 24 27 28 31 32 32 33 34 38 46
100 100 90 97 85 65 90 87 76 65 55 36 23 16 15 18 25 35 37 36 37 40 42 43 44 50 57
97 93 98 100 79 84 74 72 57 50 35 23 18 17 19 24 33 42 46 41 42 50 57 62 65 70 78
93 92 90 80 98 81 69 55 50 34 23 19 18 18 22 32 45 55 50 46 46 61 69 69 75 81 91
86 92 69 90 83 61 52 39 29 22 20 21 20 22 25 45 57 66 55 52 50 67 77 77 82 88 99
85 73 79 68 67 51 30 25 22 22 24 24 22 26 42 61 68 75 72 63 66 75 92 87 94 98 100
47 64 59 43 35 23 22 24 30 26 27 27 26 37 48 72 76 81 93 80 79 87 96 100 100 100 98